Regional Weather Roundup
Issued by NWS

Home | Current Version | Previous Version | Graphics & Text | Print | Product List | Glossary Off
Versions: 1 2 3 4 5 6 7 8 9 10 11 12 13 14 15 16 17 18 19 20 21 22 23 24 25 26 27 28 29 30 31 32 33 34 35 36 37 38 39 40 41 42 43 44 45 46 47 48 49 50

000
ASUS43 KDMX 200707
RWRIA

WEATHER ROUNDUP FOR IOWA
NATIONAL WEATHER SERVICE DES MOINES IA
200 AM CDT SAT SEP 20 2014

NOTE: "FAIR" INDICATES FEW OR NO CLOUDS BELOW 12,000 FEET WITH NO
SIGNIFICANT WEATHER AND/OR OBSTRUCTIONS TO VISIBILITY.

* - THESE STATIONS ARE NOT NWS STATIONS...THUS NOT UNDER NWS
QUALITY CONTROL.  THEY ALSO DO NOT REPORT WEATHER SUCH
AS PRECIPITATION OR FOG.

IAZ001>003-012>014-020>022-031>034-043>046-200800-
   NORTHWEST IOWA

CITY           SKY/WX    TMP DP  RH WIND       PRES   REMARKS
CARROLL *      CLOUDY    72  68  88 VRB6G13   29.87R
CHEROKEE *     CLOUDY    64  64 100 S6        29.80S
DENISON *      LGT RAIN  72  68  88 N10G17    29.84R
LE MARS *        N/A     66  64  94 CALM      29.80R
ORANGE CITY *  PTCLDY    66  63  88 SW7       29.80R
SHELDON *      PTCLDY    66  64  94 SW6       29.78R
SIOUX CITY     TSTM      67  65  93 S9        29.80R
SPENCER        CLOUDY    66  63  90 SW9       29.78R
STORM LAKE *   PTCLDY    64  64 100 SW10G16   29.80F
$$

IAZ055>058-069>071-079>083-090>094-200800-
   SOUTHWEST IOWA

CITY           SKY/WX    TMP DP  RH WIND       PRES   REMARKS
ATLANTIC *     CLEAR     70  68  94 S18G24    29.83R
AUDUBON *      CLEAR     70  63  78 SW12G20   29.84R
CLARINDA *     CLEAR     70  68  94 S10       29.88S
COUNCIL BLFS * CLEAR     70  70 100 S14       29.82S
CRESTON *      PTCLDY    68  68 100 SW13      29.87R FOG
HARLAN  *      CLEAR     70  68  94 SW9G16    29.86R
LAMONI         PTCLDY    68  66  93 S12       29.89F
RED OAK *      CLEAR     70  68  94 SW10      29.85R
SHENANDOAH *     N/A     70  68  94 S12       29.86R
$$

IAZ047>049-059>061-072>074-084-200800-
   CENTRAL IOWA

CITY           SKY/WX    TMP DP  RH WIND       PRES   REMARKS
AMES           CLOUDY    70  66  87 N10G28    29.88R
ANKENY *       CLEAR     72  66  83 SW13      29.83S
CHARITON *     PTCLDY    68  64  88 S14       29.87F
DES MOINES     CLOUDY    72  65  78 SW14      29.84R
GRINNELL*      CLOUDY    66  63  88 S8        29.87R
KNOXVILLE *    CLEAR     70  64  83 SW14      29.85F
MARSHALLTOWN   CLOUDY    68  65  90 SW9       29.85R
PELLA *        CLOUDY    68  64  88 S8        29.87F
PERRY *          N/A     70  66  88 N7        29.86R
$$

IAZ004>006-015-016-023>025-035-036-200800-
   NORTH CENTRAL IOWA

CITY           SKY/WX    TMP DP  RH WIND       PRES   REMARKS
ALGONA *       PTCLDY    66  64  94 S12G18    29.79S
CLARION *      LGT RAIN  64  63  94 S12       29.84F
ESTHERVILLE    CLOUDY    66  64  93 S8        29.76S
FORT DODGE *   CLOUDY    63  59  88 S15       29.84F THUNDER
MASON CITY     LGT RAIN  66  65  96 SW14G23   29.82F
FOREST CITY *  LGT RAIN  64  64 100 S10G16    29.79R
IOWA FALLS *   HVY RAIN  64  63  94 W9        29.89F
$$

IAZ007>011-017>019-026>030-037>042-050>054-066-200800-
   NORTHEAST IOWA

CITY           SKY/WX    TMP DP  RH WIND       PRES   REMARKS
CEDAR RAPIDS   CLOUDY    64  62  93 S12       29.87S
CHARLES CITY * CLOUDY    68  66  94 CALM      29.84F FOG
CLINTON *      MOCLDY    63  55  77 SW10      29.93F
DECORAH *      HVY RAIN  66  64  94 VRB6G21   29.84R
DUBUQUE        CLOUDY    63  58  83 SW18      29.87F
MONTICELLO *   CLEAR     64  61  88 S7        29.88S
OELWEIN *      CLOUDY    66  63  88 SW12      29.86R
WATERLOO       LGT RAIN  68  64  87 W15G23    29.87R
$$

IAZ064-065-067-068-078-200800-
   EAST CENTRAL IOWA

CITY           SKY/WX    TMP DP  RH WIND       PRES   REMARKS
DAVENPORT      MOCLDY    65  56  72 S10       29.92R
IOWA CITY      CLOUDY    62  60  93 S7        29.90S
MT. PLEASANT * MOCLDY    64  59  82 S7        29.93S
MUSCATINE *    CLEAR     64  59  82 CALM      29.92R
QUAD CITIES    PTCLDY    65  57  75 SW6       29.92R
$$

IAZ062-063-075>077-085>089-095>099-200800-
   SOUTHEAST IOWA

CITY           SKY/WX    TMP DP  RH WIND       PRES   REMARKS
BURLINGTON       N/A     64  59  83 S9        29.93R
FAIRFIELD *    CLEAR     66  61  82 S8        29.90F
FORT MADISON * CLEAR     66  61  82 SW7       29.95R
KEOKUK *       CLEAR     64  61  88 S7        29.94R
OSKALOOSA *      N/A     66  63  88 S8        29.88F
CENTERVILLE *  CLEAR     66  66 100 S10       29.92S
OTTUMWA        MOCLDY    67  62  84 S10       29.88F
WASHINGTON *   CLEAR     66  63  88 S9        29.90R
$$

ABBREVIATIONS USED IN REMARKS
   TC - TEMPERATURES IN CELSIUS
  WCI - WIND CHILL INDEX
   HX - HEAT INDEX
  VSB - VISIBILITY
$$



USA.gov is the U.S. government's official web portal to all federal, state and local government web resources and services.